Welcome to the New NWS' Forecast!
Most changes are behind the scenes, but click here for differences you might notice.
Latest weather observations around

Camp Springs / Andrews Air Force Base (KADW)

Using English Units (Switch to International System of Units)
Date/ Time (EDT) Wind (mph) Vis. (mi) Weather Sky Cond. Temp (°F) Rel. Humidity Wind Chill (°F) Heat Index (°F) Pressure Precip. (in)
Air Dwpt 6 hour Altimeter (inHg) Sea level (inHg) 1 hr 3 hr 6 hr
Max Min
Aug 20 04:56 NE 6 10 Mostly Cloudy BKN050 69 66     92%     30.05 30.06      
Aug 20 03:21 ENE 5 10 Mostly Cloudy SCT011 BKN026 70 66     88%     30.05 30.06      
Notice The following observation data may not be complete
Aug 20 03:01   10 Mostly Cloudy BKN010 BKN028          %              
Aug 20 01:11 ENE 7 10 Partly Cloudy SCT021 70 68     94%     30.03 30.04      
Aug 20 00:16 NE 8 10 Partly Cloudy SCT012 70 68     94%     30.03 30.04      
Aug 19 22:56 NNE 8 10 Partly Cloudy SCT010 71 68     93%   72 30.04 30.05      
Aug 19 19:56 NE 9 10 Clear CLR 74 68     82%   75 29.98 29.99      
Aug 19 15:56 NNE 9 10 Partly Cloudy SCT039 SCT049 81 65     59%   83 29.94 29.95      
Aug 19 08:56 N 7 10 Clear CLR 74 66     77%   74 29.93 29.94      
Aug 19 08:16 N 10 10 Partly Cloudy SCT020 72 66     83%   72 29.91 29.92      
Aug 19 05:16 NNW 8 10 Partly Cloudy SCT017 72 68     88%   73 29.86 29.87      
Aug 18 23:56 SW 3 10 Mostly Clear FEW041 76 68     76%   77 29.85 29.86      
Aug 18 21:56 W 5 10 Clear CLR 79 71     79%   80 29.86 29.87      
Notice The following observation data may not be complete
Aug 18 12:56   10 Partly Cloudy FEW140 FEW170 SCT200          %              
Aug 18 11:56 WSW 9 10 Mostly Cloudy FEW150 SCT170 BKN200 83 70     65%   88 29.91 29.92 0    
Notice The following observation data may not be complete
Aug 18 11:26   10 Mostly Cloudy FEW130 SCT160 BKN200          %              
Aug 18 11:16 WSW 7 10 Light Drizzle FEW150 SCT180 SCT200 82 72     70%   87 29.92 29.93      
Aug 18 10:56 WSW 6 10 Light Drizzle FEW110 FEW140 SCT170 BKN190 82 73     74%   87 29.92 29.93 0 0  
Aug 18 10:55 WSW 6 10 Light Drizzle FEW110 FEW140 SCT170 BKN190 82 73     74%   88 29.92 29.93      
Aug 18 10:53 SW 7 10 Mostly Cloudy FEW110 FEW140 SCT170 BKN200 82 73     74%   88 29.92 29.93      
Aug 18 10:51 SW 7 10 Light Rain FEW110 FEW140 SCT170 BKN200 82 73     74%   88 29.92 29.93      
Aug 18 07:56 WSW 3 10 Clear CLR 76 71     86%   77 29.93 29.94      
Aug 18 03:56 WSW 3 10 Clear CLR 76 70     82%   77 29.93 29.94      
Aug 17 22:56 Calm 10 Partly Cloudy FEW190 SCT220 77 70     80%   78 29.95 29.96      
Aug 17 18:56 SSW 11 10 Clear CLR 85 73     68%   91 29.97 29.98      
Aug 17 15:56   10 Partly Cloudy SCT043 SCT160 92 72     53%   99 29.98 29.99      
Aug 17 14:56 SSW 14 10 Mostly Clear FEW210 92 72     53%   100 30 30.01      
Aug 17 13:56 S 10 10 Mostly Clear FEW190 FEW210 92 71     51%   98 30.02 30.03     0
Aug 17 13:01 SSW 13 10 Mostly Cloudy FEW110 SCT160 BKN190 91 70     49%   97 30.03 30.04      
Aug 17 12:56 SSE 11 10 Partly Cloudy FEW120 FEW150 SCT180 92 70     50%   98 30.03 30.04      
Aug 17 11:56 SSW 9 7 Partly Cloudy FEW150 SCT180 89 73     60%   96 30.05 30.06      
Aug 17 10:56 SW 8 10 Mostly Clear FEW150 FEW200 87 73     64%   94 30.07 30.08 0 0  
Aug 17 10:51 SSW 8 10 Mostly Clear FEW160 86 73     66%   93 30.07 30.08      
Aug 17 10:44 SSW 8 10 Light Rain SCT160 86 73     66%   93 30.07 30.08      
Aug 17 09:56 SSW 5 10 Mostly Clear FEW190 85 73     69%   91 30.07 30.08      
Aug 17 08:56 S 6 10 Clear CLR 81 73     77%   85 30.07 30.08      
Aug 17 07:56 S 6 10 Clear CLR 77 72     86%   78 30.08 30.09      
Aug 17 06:56 S 5 10 Partly Cloudy SCT100 74 72     94%   75 30.08 30.09      
Aug 17 05:56 SSE 6 10 Clear CLR 72 71     96%   74 30.08 30.09      
Aug 17 04:56 S 5 10 Clear CLR 74 72     94%   76 30.08 30.09      
Aug 17 03:56 S 5 10 Clear CLR 75 73     94%   76 30.09 30.1      
Aug 17 02:56 S 7 10 Clear CLR 76 73     92%   77 30.09 30.1      
Aug 17 01:56 S 6 10 Clear CLR 75 73     94%   76 30.1        
Aug 17 00:56 S 6 10 Clear CLR 75 72     92%   76 30.11        
Aug 16 23:56 SSE 7 10 Clear CLR 76 72     89%   77 30.11 30.12      
Aug 16 22:56 S 8 10 Clear CLR 76 72     86%   78 30.1 30.11      
Aug 16 21:56 S 8 10 Clear CLR 77 72     84%   79 30.11 30.12      
Aug 16 20:56 S 8 10 Clear CLR 79 72     80%   80 30.09 30.1      
Aug 16 19:56 S 8 10 Clear CLR 80 72     77%   84 30.08 30.09      
Aug 16 18:56 S 9 10 Clear CLR 85 72     65%   90 30.07 30.08      
Aug 16 17:56 S 9 10 Clear CLR 88 71     58%   93 30.07 30.08      
Aug 16 16:56 S 9 10 Mostly Clear FEW200 89 70     55%   94 30.07 30.08      
Aug 16 15:56 SW 13 10 Mostly Clear FEW050 90 68     49%   93 30.08 30.09      
Aug 16 14:56 S 8 10 Partly Cloudy FEW049 SCT180 SCT210 89 69     51%   94 30.09 30.1      
Aug 16 13:56 Calm 10 Partly Cloudy FEW046 FEW170 SCT190 90 68     50%   94 30.1 30.11      
Aug 16 12:55 SW 11 7 Partly Cloudy FEW015 SCT200 88 68     52%   91 30.11        
Aug 16 11:56 SSW 5 10 Mostly Clear FEW190 87 67     52%   90 30.12 30.13      
Aug 16 10:56 Calm 10 Partly Cloudy FEW170 FEW190 SCT210 87 68     55%   90 30.12 30.13      
Aug 16 09:56 SW 3 10 Clear CLR 83 71     67%   87 30.12 30.13      
Aug 16 08:56 Calm 10 Mostly Clear FEW210 80 71     74%   83 30.1 30.11      
Aug 16 07:56 SSW 3 10 Mostly Clear FEW220 75 71     87%   76 30.1 30.11      
Aug 16 06:57 Calm 10 Clear CLR 69 69     98%     30.08 30.09      
Aug 16 05:56 SSW 3 10 Clear CLR 68 68     98%     30.07        
Aug 16 04:56 Calm 10 Clear CLR 70 69     99%     30.06        
Aug 16 03:56 Calm 10 Clear CLR 69 69     99%     30.06 30.07      
Aug 16 02:56 SW 3 10 Clear CLR 69 68     96%     30.06        
Aug 16 01:56 SW 6 10 Clear CLR 70 68     94%     30.06        
Aug 16 00:56 SW 5 10 Clear CLR 71 68     92%   72 30.06 30.07      
Aug 15 23:56 W 3 10 Clear CLR 74 69     85%   75 30.06 30.07      
Aug 15 22:56 SW 7 10 Clear CLR 77 69     77%   78 30.05 30.06      
Aug 15 21:56 SW 8 10 Clear CLR 78 69     72%   79 30.05 30.06      
Aug 15 20:56 SW 6 10 Clear CLR 76 68     75%   77 30.03 30.04      
Aug 15 19:56 W 6 10 Clear CLR 83 65     55%   85 30.02 30.03      
Aug 15 18:56 WNW 7 10 Mostly Clear FEW160 FEW190 85 64     50%   87 30.01 30.02      
Aug 15 17:56 WNW 10 10 Mostly Clear FEW190 87 63     45%   88 30.01 30.02      
Aug 15 16:56 W 10 10 Mostly Clear FEW220 88 64     44%   90 30.01 30.02      
May 14 21:08 SE 13 10 Light Rain OVC032 66 64     94%     29.94 29.96      
May 14 20:01 NNE 9 3 Heavy Rain and Fog/Mist OVC023 66 64     94%     29.99 30.01      
May 14 19:52   4 Heavy Rain and Fog/Mist OVC018 66 64     94%     29.99 30.01      
May 14 19:39 NNW 14 1.88 Thunderstorms and Heavy Rain and Fog/Mist OVC012 66 64     94%     30 30.02      
May 14 19:12   8 Thunderstorms and Heavy Rain FEW004 72 66     83%   72 29.98 30      
May 14 18:57 ESE 6 10 Light Rain FEW120 72 68     88%   73 29.93 29.95      
May 13 19:58 E 7 10 Cloudy OVC005 61 59     94%     30.02 30.04      
May 13 13:30 E 11 10 Clear   66 64     94%     30.06 30.08      
May 13 09:56 ENE 7 10 Cloudy OVC005 65 65     98%     30.09 30.11 0    
May 13 07:17 NE 3 10 Mostly Cloudy BKN003 63 63     100%     30.06 30.07      
May 13 07:16 ENE 5 10 Light Rain BKN003 63 63     100%     30.06 30.07      
May 13 05:26   5 Heavy Rain and Fog/Mist OVC006 64 63     94%     30.09 30.1      
May 12 20:56   10 Thunderstorms and Rain FEW090 75 68     81%   76   29.98 0    
May 12 08:56 ENE 5 10 Clear   69 62     78%     30.07 30.09      
May 11 20:56 ESE 6 10 Mostly Clear FEW080 71 53     54%   70 30.04 30.06      
Jun 11 17:58 SW 11 10 Clear   90 62     38%   91 30.07 30.08      
Jun 11 15:58 SSW 11 10 Clear CLR 92 58     33%   91 30.09 30.1      
Jun 09 00:58 Calm 10 Clear CLR 53 50     88%     29.82 29.84      
Notice The following observation data may not be complete
Jun 08 01:58   10 Clear CLR          %              
Jun 07 23:58 N 5 10 Clear CLR 53 50     88%     30.04 30.06      
Notice The following observation data may not be complete
Jun 07 18:58   10 Cloudy OVC038          %              
Jun 07 16:18 ENE 8 10 Mostly Cloudy BKN029 BKN200 64 54     68%     29.99 30.01      
Jun 07 15:48 ENE 11 10 Mostly Cloudy SCT023 BKN031 BKN160 64 54     68%     29.99 30.01      
Notice The following observation data may not be complete
Jun 07 13:23   10 Mostly Cloudy FEW022 BKN030          %              
Jun 07 11:13 E 9 10 Cloudy OVC014 61 55     82%     29.97 29.99      
Jun 07 09:18 E 9 10 Cloudy BKN014 OVC024 61 55     82%     29.95 29.97      
Jun 06 04:19 W 6 1.25 Fog/Mist SCT001 64 64     100%     29.66 29.67      
Jun 06 04:17 W 6 0.75 Fog/Mist VV001 64 64     100%     29.66 29.67      
Jun 06 01:10 Calm 1.25 Fog/Mist FEW041 63 63     100%     29.68 29.7      
Jun 06 00:57 Calm 0.75 Fog/Mist FEW065 63 63     100%     29.69 29.7